owner,sensor,date,latitude,longitude,vertical_datum,sea_water_practical_salinity,qcFlag 
NERRS,ioos:station:NOAA.NERRS:gndpcwq:1,2014-05-01T00:00:00Z,30.3486,-88.4185,1.32,5.2,1111122 
NERRS,ioos:station:NOAA.NERRS:gndpcwq:1,2014-05-01T01:00:00Z,30.3486,-88.4185,1.32,5.0,1111122 
NERRS,ioos:station:NOAA.NERRS:gndpcwq:1,2014-05-01T02:00:00Z,30.3486,-88.4185,1.28,5.0,1111122 
NERRS,ioos:station:NOAA.NERRS:gndpcwq:1,2014-05-01T03:00:00Z,30.3486,-88.4185,1.25,4.8,1111122 
NERRS,ioos:station:NOAA.NERRS:gndpcwq:1,2014-05-01T05:00:00Z,30.3486,-88.4185,1.31,4.8,1111122 
NERRS,ioos:station:NOAA.NERRS:gndpcwq:1,2014-05-01T06:00:00Z,30.3486,-88.4185,1.32,4.9,1111122 
NERRS,ioos:station:NOAA.NERRS:gndpcwq:1,2014-05-01T07:00:00Z,30.3486,-88.4185,1.35,4.9,1111122 
NERRS,ioos:station:NOAA.NERRS:gndpcwq:1,2014-05-01T08:00:00Z,30.3486,-88.4185,1.31,4.7,1111122 
NERRS,ioos:station:NOAA.NERRS:gndpcwq:1,2014-05-01T09:00:00Z,30.3486,-88.4185,1.29,4.6,1111122 
NERRS,ioos:station:NOAA.NERRS:gndpcwq:1,2014-05-01T10:00:00Z,30.3486,-88.4185,1.34,4.5,1111122 
NERRS,ioos:station:NOAA.NERRS:gndpcwq:1,2014-05-01T11:00:00Z,30.3486,-88.4185,1.4,4.3,1111122 
NERRS,ioos:station:NOAA.NERRS:gndpcwq:1,2014-05-01T12:00:00Z,30.3486,-88.4185,1.43,4.2,1111122 
NERRS,ioos:station:NOAA.NERRS:gndpcwq:1,2014-05-01T13:00:00Z,30.3486,-88.4185,1.47,4.2,1111122 
NERRS,ioos:station:NOAA.NERRS:gndpcwq:1,2014-05-01T14:00:00Z,30.3486,-88.4185,1.58,4.1,1111122 
NERRS,ioos:station:NOAA.NERRS:gndpcwq:1,2014-05-01T15:00:00Z,30.3486,-88.4185,1.68,4.0,1111122 
NERRS,ioos:station:NOAA.NERRS:gndpcwq:1,2014-05-01T16:00:00Z,30.3486,-88.4185,1.74,4.0,1111122 
NERRS,ioos:station:NOAA.NERRS:gndpcwq:1,2014-05-01T17:00:00Z,30.3486,-88.4185,1.75,5.1,1111122 
NERRS,ioos:station:NOAA.NERRS:gndpcwq:1,2014-05-01T18:00:00Z,30.3486,-88.4185,1.72,5.5,1111122 
NERRS,ioos:station:NOAA.NERRS:gndpcwq:1,2014-05-01T19:00:00Z,30.3486,-88.4185,1.68,5.8,1111122 
NERRS,ioos:station:NOAA.NERRS:gndpcwq:1,2014-05-01T20:00:00Z,30.3486,-88.4185,1.64,5.9,1111122 
NERRS,ioos:station:NOAA.NERRS:gndpcwq:1,2014-05-01T21:00:00Z,30.3486,-88.4185,1.59,6.0,1111122 
NERRS,ioos:station:NOAA.NERRS:gndpcwq:1,2014-05-01T22:00:00Z,30.3486,-88.4185,1.5,6.0,1111122 
NERRS,ioos:station:NOAA.NERRS:gndpcwq:1,2014-05-01T23:00:00Z,30.3486,-88.4185,1.39,6.0,1111122 
NERRS,ioos:station:NOAA.NERRS:gndpcwq:1,2014-05-02T00:00:00Z,30.3486,-88.4185,1.31,6.0,1111122 
NERRS,ioos:station:NOAA.NERRS:gndpcwq:1,2014-05-02T01:00:00Z,30.3486,-88.4185,1.26,6.0,1111122 
NERRS,ioos:station:NOAA.NERRS:gndpcwq:1,2014-05-02T02:00:00Z,30.3486,-88.4185,1.23,6.0,1111122 
NERRS,ioos:station:NOAA.NERRS:gndpcwq:1,2014-05-02T03:00:00Z,30.3486,-88.4185,1.21,5.8,1111122 
NERRS,ioos:station:NOAA.NERRS:gndpcwq:1,2014-05-02T04:00:00Z,30.3486,-88.4185,1.21,5.6,1111122 
NERRS,ioos:station:NOAA.NERRS:gndpcwq:1,2014-05-02T05:00:00Z,30.3486,-88.4185,1.18,5.3,1111122 
NERRS,ioos:station:NOAA.NERRS:gndpcwq:1,2014-05-02T06:00:00Z,30.3486,-88.4185,1.22,5.1,1111122 
NERRS,ioos:station:NOAA.NERRS:gndpcwq:1,2014-05-02T07:00:00Z,30.3486,-88.4185,1.25,4.9,1111122 
NERRS,ioos:station:NOAA.NERRS:gndpcwq:1,2014-05-02T08:00:00Z,30.3486,-88.4185,1.32,4.8,1111122 
NERRS,ioos:station:NOAA.NERRS:gndpcwq:1,2014-05-02T09:00:00Z,30.3486,-88.4185,1.37,4.7,1111122 
NERRS,ioos:station:NOAA.NERRS:gndpcwq:1,2014-05-02T10:00:00Z,30.3486,-88.4185,1.39,4.6,1111122 
NERRS,ioos:station:NOAA.NERRS:gndpcwq:1,2014-05-02T11:00:00Z,30.3486,-88.4185,1.41,4.8,1111122 
NERRS,ioos:station:NOAA.NERRS:gndpcwq:1,2014-05-02T12:00:00Z,30.3486,-88.4185,1.48,5.2,1111122 
NERRS,ioos:station:NOAA.NERRS:gndpcwq:1,2014-05-02T13:00:00Z,30.3486,-88.4185,1.55,5.4,1111122 
NERRS,ioos:station:NOAA.NERRS:gndpcwq:1,2014-05-02T14:00:00Z,30.3486,-88.4185,1.62,5.6,1111122 
NERRS,ioos:station:NOAA.NERRS:gndpcwq:1,2014-05-02T15:00:00Z,30.3486,-88.4185,1.68,5.7,1111122 
NERRS,ioos:station:NOAA.NERRS:gndpcwq:1,2014-05-02T16:00:00Z,30.3486,-88.4185,1.72,5.8,1111122 
NERRS,ioos:station:NOAA.NERRS:gndpcwq:1,2014-05-02T17:00:00Z,30.3486,-88.4185,1.75,6.0,1111122 
NERRS,ioos:station:NOAA.NERRS:gndpcwq:1,2014-05-02T18:00:00Z,30.3486,-88.4185,1.73,6.1,1111122 
NERRS,ioos:station:NOAA.NERRS:gndpcwq:1,2014-05-02T19:00:00Z,30.3486,-88.4185,1.67,6.3,1111122 
NERRS,ioos:station:NOAA.NERRS:gndpcwq:1,2014-05-02T20:00:00Z,30.3486,-88.4185,1.62,6.3,1111122 
NERRS,ioos:station:NOAA.NERRS:gndpcwq:1,2014-05-02T21:00:00Z,30.3486,-88.4185,1.59,6.3,1111122 
NERRS,ioos:station:NOAA.NERRS:gndpcwq:1,2014-05-02T22:00:00Z,30.3486,-88.4185,1.52,6.1,1111122 
NERRS,ioos:station:NOAA.NERRS:gndpcwq:1,2014-05-02T23:00:00Z,30.3486,-88.4185,1.42,5.9,1111122 
NERRS,ioos:station:NOAA.NERRS:gndpcwq:1,2014-05-03T00:00:00Z,30.3486,-88.4185,1.35,5.7,1111122 
NERRS,ioos:station:NOAA.NERRS:gndpcwq:1,2014-05-03T01:00:00Z,30.3486,-88.4185,1.32,5.5,1111122 
NERRS,ioos:station:NOAA.NERRS:gndpcwq:1,2014-05-03T02:00:00Z,30.3486,-88.4185,1.25,5.3,1111122 
NERRS,ioos:station:NOAA.NERRS:gndpcwq:1,2014-05-03T03:00:00Z,30.3486,-88.4185,1.22,5.3,1111122 
NERRS,ioos:station:NOAA.NERRS:gndpcwq:1,2014-05-03T04:00:00Z,30.3486,-88.4185,1.21,5.3,1111122 
NERRS,ioos:station:NOAA.NERRS:gndpcwq:1,2014-05-03T05:00:00Z,30.3486,-88.4185,1.22,5.3,1111122 
NERRS,ioos:station:NOAA.NERRS:gndpcwq:1,2014-05-03T06:00:00Z,30.3486,-88.4185,1.25,5.2,1111122 
NERRS,ioos:station:NOAA.NERRS:gndpcwq:1,2014-05-03T07:00:00Z,30.3486,-88.4185,1.29,5.0,1111122 
NERRS,ioos:station:NOAA.NERRS:gndpcwq:1,2014-05-03T08:00:00Z,30.3486,-88.4185,1.33,4.9,1111122 
NERRS,ioos:station:NOAA.NERRS:gndpcwq:1,2014-05-03T09:00:00Z,30.3486,-88.4185,1.35,4.8,1111122 
NERRS,ioos:station:NOAA.NERRS:gndpcwq:1,2014-05-03T10:00:00Z,30.3486,-88.4185,1.39,4.7,1111122 
NERRS,ioos:station:NOAA.NERRS:gndpcwq:1,2014-05-03T11:00:00Z,30.3486,-88.4185,1.45,4.8,1111122 
NERRS,ioos:station:NOAA.NERRS:gndpcwq:1,2014-05-03T12:00:00Z,30.3486,-88.4185,1.48,4.8,1111122 
NERRS,ioos:station:NOAA.NERRS:gndpcwq:1,2014-05-03T13:00:00Z,30.3486,-88.4185,1.55,4.7,1111122 
NERRS,ioos:station:NOAA.NERRS:gndpcwq:1,2014-05-03T14:00:00Z,30.3486,-88.4185,1.61,4.7,1111122 
NERRS,ioos:station:NOAA.NERRS:gndpcwq:1,2014-05-03T15:00:00Z,30.3486,-88.4185,1.65,4.7,1111122 
NERRS,ioos:station:NOAA.NERRS:gndpcwq:1,2014-05-03T16:00:00Z,30.3486,-88.4185,1.69,4.8,1111122 
NERRS,ioos:station:NOAA.NERRS:gndpcwq:1,2014-05-03T17:00:00Z,30.3486,-88.4185,1.69,4.8,1111122 
NERRS,ioos:station:NOAA.NERRS:gndpcwq:1,2014-05-03T18:00:00Z,30.3486,-88.4185,1.67,5.0,1111122 
NERRS,ioos:station:NOAA.NERRS:gndpcwq:1,2014-05-03T19:00:00Z,30.3486,-88.4185,1.66,5.1,1111122 
NERRS,ioos:station:NOAA.NERRS:gndpcwq:1,2014-05-03T20:00:00Z,30.3486,-88.4185,1.63,5.2,1111122 
NERRS,ioos:station:NOAA.NERRS:gndpcwq:1,2014-05-03T21:00:00Z,30.3486,-88.4185,1.58,5.3,1111122 
NERRS,ioos:station:NOAA.NERRS:gndpcwq:1,2014-05-03T22:00:00Z,30.3486,-88.4185,1.53,5.4,1111122 
NERRS,ioos:station:NOAA.NERRS:gndpcwq:1,2014-05-03T23:00:00Z,30.3486,-88.4185,1.45,5.2,1111122 
NERRS,ioos:station:NOAA.NERRS:gndpcwq:1,2014-05-04T00:00:00Z,30.3486,-88.4185,1.39,5.2,1111122 
NERRS,ioos:station:NOAA.NERRS:gndpcwq:1,2014-05-04T01:00:00Z,30.3486,-88.4185,1.31,5.1,1111122 
NERRS,ioos:station:NOAA.NERRS:gndpcwq:1,2014-05-04T02:00:00Z,30.3486,-88.4185,1.28,5.3,1111122 
NERRS,ioos:station:NOAA.NERRS:gndpcwq:1,2014-05-04T03:00:00Z,30.3486,-88.4185,1.26,5.2,1111122 
NERRS,ioos:station:NOAA.NERRS:gndpcwq:1,2014-05-04T04:00:00Z,30.3486,-88.4185,1.23,5.2,1111122 
NERRS,ioos:station:NOAA.NERRS:gndpcwq:1,2014-05-04T05:00:00Z,30.3486,-88.4185,1.19,5.1,1111122 
NERRS,ioos:station:NOAA.NERRS:gndpcwq:1,2014-05-04T06:00:00Z,30.3486,-88.4185,1.17,5.2,1111122 
NERRS,ioos:station:NOAA.NERRS:gndpcwq:1,2014-05-04T07:00:00Z,30.3486,-88.4185,1.17,5.4,1111122 
NERRS,ioos:station:NOAA.NERRS:gndpcwq:1,2014-05-04T08:00:00Z,30.3486,-88.4185,1.2,5.4,1111122 
NERRS,ioos:station:NOAA.NERRS:gndpcwq:1,2014-05-04T09:00:00Z,30.3486,-88.4185,1.24,5.2,1111122 
NERRS,ioos:station:NOAA.NERRS:gndpcwq:1,2014-05-04T10:00:00Z,30.3486,-88.4185,1.27,5.2,1111122 
NERRS,ioos:station:NOAA.NERRS:gndpcwq:1,2014-05-04T11:00:00Z,30.3486,-88.4185,1.31,5.1,1111122 
NERRS,ioos:station:NOAA.NERRS:gndpcwq:1,2014-05-04T12:00:00Z,30.3486,-88.4185,1.36,5.0,1111122 
NERRS,ioos:station:NOAA.NERRS:gndpcwq:1,2014-05-04T13:00:00Z,30.3486,-88.4185,1.42,4.8,1111122 
NERRS,ioos:station:NOAA.NERRS:gndpcwq:1,2014-05-04T14:00:00Z,30.3486,-88.4185,1.47,4.8,1111122 
NERRS,ioos:station:NOAA.NERRS:gndpcwq:1,2014-05-04T15:00:00Z,30.3486,-88.4185,1.5,6.6,1111122 
NERRS,ioos:station:NOAA.NERRS:gndpcwq:1,2014-05-04T16:00:00Z,30.3486,-88.4185,1.54,7.6,1111122 
NERRS,ioos:station:NOAA.NERRS:gndpcwq:1,2014-05-04T17:00:00Z,30.3486,-88.4185,1.57,8.1,1111122 
NERRS,ioos:station:NOAA.NERRS:gndpcwq:1,2014-05-04T18:00:00Z,30.3486,-88.4185,1.57,8.2,1111122 
NERRS,ioos:station:NOAA.NERRS:gndpcwq:1,2014-05-04T19:00:00Z,30.3486,-88.4185,1.56,8.3,1111122 
NERRS,ioos:station:NOAA.NERRS:gndpcwq:1,2014-05-04T20:00:00Z,30.3486,-88.4185,1.53,8.2,1111122 
NERRS,ioos:station:NOAA.NERRS:gndpcwq:1,2014-05-04T21:00:00Z,30.3486,-88.4185,1.51,8.1,1111122 
NERRS,ioos:station:NOAA.NERRS:gndpcwq:1,2014-05-04T22:00:00Z,30.3486,-88.4185,1.48,8.0,1111122 
NERRS,ioos:station:NOAA.NERRS:gndpcwq:1,2014-05-04T23:00:00Z,30.3486,-88.4185,1.41,7.7,1111122 
NERRS,ioos:station:NOAA.NERRS:gndpcwq:1,2014-05-05T00:00:00Z,30.3486,-88.4185,1.35,7.5,1111122 
NERRS,ioos:station:NOAA.NERRS:gndpcwq:1,2014-05-05T01:00:00Z,30.3486,-88.4185,1.31,7.2,1111122 
NERRS,ioos:station:NOAA.NERRS:gndpcwq:1,2014-05-05T02:00:00Z,30.3486,-88.4185,1.27,6.9,1111122 
NERRS,ioos:station:NOAA.NERRS:gndpcwq:1,2014-05-05T03:00:00Z,30.3486,-88.4185,1.24,6.6,1111122 
NERRS,ioos:station:NOAA.NERRS:gndpcwq:1,2014-05-05T04:00:00Z,30.3486,-88.4185,1.21,6.0,1111122 
NERRS,ioos:station:NOAA.NERRS:gndpcwq:1,2014-05-05T05:00:00Z,30.3486,-88.4185,1.18,5.4,1111122 
NERRS,ioos:station:NOAA.NERRS:gndpcwq:1,2014-05-05T06:00:00Z,30.3486,-88.4185,1.17,5.1,1111122 
NERRS,ioos:station:NOAA.NERRS:gndpcwq:1,2014-05-05T07:00:00Z,30.3486,-88.4185,1.17,5.1,1111122 
NERRS,ioos:station:NOAA.NERRS:gndpcwq:1,2014-05-05T08:00:00Z,30.3486,-88.4185,1.18,5.4,1111122 
NERRS,ioos:station:NOAA.NERRS:gndpcwq:1,2014-05-05T09:00:00Z,30.3486,-88.4185,1.2,5.7,1111122 
NERRS,ioos:station:NOAA.NERRS:gndpcwq:1,2014-05-05T10:00:00Z,30.3486,-88.4185,1.23,5.9,1111122 
NERRS,ioos:station:NOAA.NERRS:gndpcwq:1,2014-05-05T11:00:00Z,30.3486,-88.4185,1.27,6.1,1111122 
NERRS,ioos:station:NOAA.NERRS:gndpcwq:1,2014-05-05T12:00:00Z,30.3486,-88.4185,1.33,6.1,1111122 
NERRS,ioos:station:NOAA.NERRS:gndpcwq:1,2014-05-05T13:00:00Z,30.3486,-88.4185,1.39,6.1,1111122 
NERRS,ioos:station:NOAA.NERRS:gndpcwq:1,2014-05-05T14:00:00Z,30.3486,-88.4185,1.43,6.1,1111122 
NERRS,ioos:station:NOAA.NERRS:gndpcwq:1,2014-05-05T15:00:00Z,30.3486,-88.4185,1.48,6.0,1111122 
NERRS,ioos:station:NOAA.NERRS:gndpcwq:1,2014-05-05T16:00:00Z,30.3486,-88.4185,1.51,6.4,1111122 
NERRS,ioos:station:NOAA.NERRS:gndpcwq:1,2014-05-05T17:00:00Z,30.3486,-88.4185,1.53,6.7,1111122 
NERRS,ioos:station:NOAA.NERRS:gndpcwq:1,2014-05-05T18:00:00Z,30.3486,-88.4185,1.55,6.8,1111122 
NERRS,ioos:station:NOAA.NERRS:gndpcwq:1,2014-05-05T19:00:00Z,30.3486,-88.4185,1.55,7.0,1111122 
NERRS,ioos:station:NOAA.NERRS:gndpcwq:1,2014-05-05T20:00:00Z,30.3486,-88.4185,1.53,7.0,1111122 
NERRS,ioos:station:NOAA.NERRS:gndpcwq:1,2014-05-05T21:00:00Z,30.3486,-88.4185,1.5,6.9,1111122 
NERRS,ioos:station:NOAA.NERRS:gndpcwq:1,2014-05-05T22:00:00Z,30.3486,-88.4185,1.46,6.9,1111122 
NERRS,ioos:station:NOAA.NERRS:gndpcwq:1,2014-05-05T23:00:00Z,30.3486,-88.4185,1.43,6.9,1111122 
NERRS,ioos:station:NOAA.NERRS:gndpcwq:1,2014-05-06T00:00:00Z,30.3486,-88.4185,1.38,6.7,1111122 
NERRS,ioos:station:NOAA.NERRS:gndpcwq:1,2014-05-06T01:00:00Z,30.3486,-88.4185,1.34,6.6,1111122 
NERRS,ioos:station:NOAA.NERRS:gndpcwq:1,2014-05-06T02:00:00Z,30.3486,-88.4185,1.3,6.5,1111122 
NERRS,ioos:station:NOAA.NERRS:gndpcwq:1,2014-05-06T03:00:00Z,30.3486,-88.4185,1.27,6.3,1111122 
NERRS,ioos:station:NOAA.NERRS:gndpcwq:1,2014-05-06T04:00:00Z,30.3486,-88.4185,1.25,6.3,1111122 
NERRS,ioos:station:NOAA.NERRS:gndpcwq:1,2014-05-06T05:00:00Z,30.3486,-88.4185,1.24,6.3,1111122 
NERRS,ioos:station:NOAA.NERRS:gndpcwq:1,2014-05-06T06:00:00Z,30.3486,-88.4185,1.24,6.3,1111122 
NERRS,ioos:station:NOAA.NERRS:gndpcwq:1,2014-05-06T07:00:00Z,30.3486,-88.4185,1.24,6.4,1111122 
NERRS,ioos:station:NOAA.NERRS:gndpcwq:1,2014-05-06T08:00:00Z,30.3486,-88.4185,1.24,6.4,1111122 
NERRS,ioos:station:NOAA.NERRS:gndpcwq:1,2014-05-06T09:00:00Z,30.3486,-88.4185,1.26,6.5,1111122 
NERRS,ioos:station:NOAA.NERRS:gndpcwq:1,2014-05-06T10:00:00Z,30.3486,-88.4185,1.3,6.7,1111122 
NERRS,ioos:station:NOAA.NERRS:gndpcwq:1,2014-05-06T11:00:00Z,30.3486,-88.4185,1.35,6.9,1111122 
NERRS,ioos:station:NOAA.NERRS:gndpcwq:1,2014-05-06T12:00:00Z,30.3486,-88.4185,1.39,7.0,1111122 
NERRS,ioos:station:NOAA.NERRS:gndpcwq:1,2014-05-06T13:00:00Z,30.3486,-88.4185,1.42,7.2,1111122 
NERRS,ioos:station:NOAA.NERRS:gndpcwq:1,2014-05-06T14:00:00Z,30.3486,-88.4185,1.46,7.2,1111122 
NERRS,ioos:station:NOAA.NERRS:gndpcwq:1,2014-05-06T15:00:00Z,30.3486,-88.4185,1.49,7.2,1111122 
NERRS,ioos:station:NOAA.NERRS:gndpcwq:1,2014-05-06T16:00:00Z,30.3486,-88.4185,1.51,7.3,1111122 
NERRS,ioos:station:NOAA.NERRS:gndpcwq:1,2014-05-06T17:00:00Z,30.3486,-88.4185,1.53,7.3,1111122 
NERRS,ioos:station:NOAA.NERRS:gndpcwq:1,2014-05-06T18:00:00Z,30.3486,-88.4185,1.53,7.4,1111122 
NERRS,ioos:station:NOAA.NERRS:gndpcwq:1,2014-05-06T19:00:00Z,30.3486,-88.4185,1.53,7.4,1111122 
NERRS,ioos:station:NOAA.NERRS:gndpcwq:1,2014-05-06T20:00:00Z,30.3486,-88.4185,1.51,7.4,1111122 
NERRS,ioos:station:NOAA.NERRS:gndpcwq:1,2014-05-06T21:00:00Z,30.3486,-88.4185,1.5,7.4,1111122 
NERRS,ioos:station:NOAA.NERRS:gndpcwq:1,2014-05-06T22:00:00Z,30.3486,-88.4185,1.47,7.3,1111122 
NERRS,ioos:station:NOAA.NERRS:gndpcwq:1,2014-05-06T23:00:00Z,30.3486,-88.4185,1.44,7.3,1111122 
NERRS,ioos:station:NOAA.NERRS:gndpcwq:1,2014-05-07T00:00:00Z,30.3486,-88.4185,1.42,7.3,1111122 
NERRS,ioos:station:NOAA.NERRS:gndpcwq:1,2014-05-07T01:00:00Z,30.3486,-88.4185,1.4,7.2,1111122 
NERRS,ioos:station:NOAA.NERRS:gndpcwq:1,2014-05-07T02:00:00Z,30.3486,-88.4185,1.37,7.2,1111122 
NERRS,ioos:station:NOAA.NERRS:gndpcwq:1,2014-05-07T03:00:00Z,30.3486,-88.4185,1.34,7.1,1111122 
NERRS,ioos:station:NOAA.NERRS:gndpcwq:1,2014-05-07T04:00:00Z,30.3486,-88.4185,1.32,7.1,1111122 
NERRS,ioos:station:NOAA.NERRS:gndpcwq:1,2014-05-07T05:00:00Z,30.3486,-88.4185,1.33,7.1,1111122 
NERRS,ioos:station:NOAA.NERRS:gndpcwq:1,2014-05-07T06:00:00Z,30.3486,-88.4185,1.34,7.0,1111122 
NERRS,ioos:station:NOAA.NERRS:gndpcwq:1,2014-05-07T07:00:00Z,30.3486,-88.4185,1.36,7.0,1111122 
NERRS,ioos:station:NOAA.NERRS:gndpcwq:1,2014-05-07T08:00:00Z,30.3486,-88.4185,1.39,7.0,1111122 
NERRS,ioos:station:NOAA.NERRS:gndpcwq:1,2014-05-07T09:00:00Z,30.3486,-88.4185,1.43,7.0,1111122 
NERRS,ioos:station:NOAA.NERRS:gndpcwq:1,2014-05-07T10:00:00Z,30.3486,-88.4185,1.44,6.9,1111122 
NERRS,ioos:station:NOAA.NERRS:gndpcwq:1,2014-05-07T11:00:00Z,30.3486,-88.4185,1.47,6.9,1111122 
NERRS,ioos:station:NOAA.NERRS:gndpcwq:1,2014-05-07T12:00:00Z,30.3486,-88.4185,1.5,6.9,1111122 
NERRS,ioos:station:NOAA.NERRS:gndpcwq:1,2014-05-07T13:00:00Z,30.3486,-88.4185,1.55,6.9,1111122 
NERRS,ioos:station:NOAA.NERRS:gndpcwq:1,2014-05-07T14:00:00Z,30.3486,-88.4185,1.61,6.9,1111122 
NERRS,ioos:station:NOAA.NERRS:gndpcwq:1,2014-05-07T15:00:00Z,30.3486,-88.4185,1.64,6.9,1111122 
NERRS,ioos:station:NOAA.NERRS:gndpcwq:1,2014-05-07T16:00:00Z,30.3486,-88.4185,1.64,6.8,1111122 
NERRS,ioos:station:NOAA.NERRS:gndpcwq:1,2014-05-07T17:00:00Z,30.3486,-88.4185,1.64,6.8,1111122 
NERRS,ioos:station:NOAA.NERRS:gndpcwq:1,2014-05-07T18:00:00Z,30.3486,-88.4185,1.64,6.7,1111122 
NERRS,ioos:station:NOAA.NERRS:gndpcwq:1,2014-05-07T19:00:00Z,30.3486,-88.4185,1.63,6.6,1111122 
NERRS,ioos:station:NOAA.NERRS:gndpcwq:1,2014-05-07T20:00:00Z,30.3486,-88.4185,1.6,6.4,1111122 
NERRS,ioos:station:NOAA.NERRS:gndpcwq:1,2014-05-07T21:00:00Z,30.3486,-88.4185,1.59,6.3,1111122 
NERRS,ioos:station:NOAA.NERRS:gndpcwq:1,2014-05-07T22:00:00Z,30.3486,-88.4185,1.57,6.2,1111122 
NERRS,ioos:station:NOAA.NERRS:gndpcwq:1,2014-05-08T00:00:00Z,30.3486,-88.4185,1.49,6.1,1111122 
NERRS,ioos:station:NOAA.NERRS:gndpcwq:1,2014-05-08T01:00:00Z,30.3486,-88.4185,1.45,6.0,1111122 
NERRS,ioos:station:NOAA.NERRS:gndpcwq:1,2014-05-08T02:00:00Z,30.3486,-88.4185,1.42,6.0,1111122 
NERRS,ioos:station:NOAA.NERRS:gndpcwq:1,2014-05-08T03:00:00Z,30.3486,-88.4185,1.41,5.8,1111122 
NERRS,ioos:station:NOAA.NERRS:gndpcwq:1,2014-05-08T04:00:00Z,30.3486,-88.4185,1.4,5.7,1111122 
NERRS,ioos:station:NOAA.NERRS:gndpcwq:1,2014-05-08T05:00:00Z,30.3486,-88.4185,1.41,5.6,1111122 
NERRS,ioos:station:NOAA.NERRS:gndpcwq:1,2014-05-08T06:00:00Z,30.3486,-88.4185,1.41,5.6,1111122 
NERRS,ioos:station:NOAA.NERRS:gndpcwq:1,2014-05-08T07:00:00Z,30.3486,-88.4185,1.42,5.6,1111122 
NERRS,ioos:station:NOAA.NERRS:gndpcwq:1,2014-05-08T08:00:00Z,30.3486,-88.4185,1.43,5.6,1111122 
NERRS,ioos:station:NOAA.NERRS:gndpcwq:1,2014-05-08T09:00:00Z,30.3486,-88.4185,1.44,5.9,1111122 
NERRS,ioos:station:NOAA.NERRS:gndpcwq:1,2014-05-08T10:00:00Z,30.3486,-88.4185,1.46,6.0,1111122 
NERRS,ioos:station:NOAA.NERRS:gndpcwq:1,2014-05-08T11:00:00Z,30.3486,-88.4185,1.46,6.1,1111122 
NERRS,ioos:station:NOAA.NERRS:gndpcwq:1,2014-05-08T12:00:00Z,30.3486,-88.4185,1.49,6.1,1111122 
NERRS,ioos:station:NOAA.NERRS:gndpcwq:1,2014-05-08T13:00:00Z,30.3486,-88.4185,1.53,6.1,1111122 
NERRS,ioos:station:NOAA.NERRS:gndpcwq:1,2014-05-08T14:00:00Z,30.3486,-88.4185,1.57,6.1,1111122 
NERRS,ioos:station:NOAA.NERRS:gndpcwq:1,2014-05-08T15:00:00Z,30.3486,-88.4185,1.59,6.1,1111122 
NERRS,ioos:station:NOAA.NERRS:gndpcwq:1,2014-05-08T16:00:00Z,30.3486,-88.4185,1.59,6.0,1111122 
NERRS,ioos:station:NOAA.NERRS:gndpcwq:1,2014-05-08T17:00:00Z,30.3486,-88.4185,1.57,6.1,1111122 
NERRS,ioos:station:NOAA.NERRS:gndpcwq:1,2014-05-08T18:00:00Z,30.3486,-88.4185,1.57,6.1,1111122 
NERRS,ioos:station:NOAA.NERRS:gndpcwq:1,2014-05-08T19:00:00Z,30.3486,-88.4185,1.58,6.1,1111122 
NERRS,ioos:station:NOAA.NERRS:gndpcwq:1,2014-05-08T20:00:00Z,30.3486,-88.4185,1.59,6.0,1111122 
NERRS,ioos:station:NOAA.NERRS:gndpcwq:1,2014-05-08T21:00:00Z,30.3486,-88.4185,1.58,6.0,1111122 
NERRS,ioos:station:NOAA.NERRS:gndpcwq:1,2014-05-08T22:00:00Z,30.3486,-88.4185,1.57,5.9,1111122 
NERRS,ioos:station:NOAA.NERRS:gndpcwq:1,2014-05-08T23:00:00Z,30.3486,-88.4185,1.55,5.7,1111122 
NERRS,ioos:station:NOAA.NERRS:gndpcwq:1,2014-05-09T00:00:00Z,30.3486,-88.4185,1.55,5.5,1111122 
NERRS,ioos:station:NOAA.NERRS:gndpcwq:1,2014-05-09T01:00:00Z,30.3486,-88.4185,1.54,5.2,1111122 
NERRS,ioos:station:NOAA.NERRS:gndpcwq:1,2014-05-09T02:00:00Z,30.3486,-88.4185,1.56,4.9,1111122 
NERRS,ioos:station:NOAA.NERRS:gndpcwq:1,2014-05-09T03:00:00Z,30.3486,-88.4185,1.55,4.8,1111122 
NERRS,ioos:station:NOAA.NERRS:gndpcwq:1,2014-05-09T04:00:00Z,30.3486,-88.4185,1.53,4.7,1111122 
NERRS,ioos:station:NOAA.NERRS:gndpcwq:1,2014-05-09T05:00:00Z,30.3486,-88.4185,1.51,4.6,1111122 
NERRS,ioos:station:NOAA.NERRS:gndpcwq:1,2014-05-09T06:00:00Z,30.3486,-88.4185,1.5,4.5,1111122 
NERRS,ioos:station:NOAA.NERRS:gndpcwq:1,2014-05-09T07:00:00Z,30.3486,-88.4185,1.49,4.5,1111122 
NERRS,ioos:station:NOAA.NERRS:gndpcwq:1,2014-05-09T08:00:00Z,30.3486,-88.4185,1.48,4.5,1111122 
NERRS,ioos:station:NOAA.NERRS:gndpcwq:1,2014-05-09T09:00:00Z,30.3486,-88.4185,1.51,4.5,1111122 
NERRS,ioos:station:NOAA.NERRS:gndpcwq:1,2014-05-09T10:00:00Z,30.3486,-88.4185,1.54,4.5,1111122 
NERRS,ioos:station:NOAA.NERRS:gndpcwq:1,2014-05-09T12:00:00Z,30.3486,-88.4185,1.59,4.5,1111122 
NERRS,ioos:station:NOAA.NERRS:gndpcwq:1,2014-05-09T13:00:00Z,30.3486,-88.4185,1.6,4.5,1111122 
NERRS,ioos:station:NOAA.NERRS:gndpcwq:1,2014-05-09T14:00:00Z,30.3486,-88.4185,1.63,4.5,1111122 
NERRS,ioos:station:NOAA.NERRS:gndpcwq:1,2014-05-09T15:00:00Z,30.3486,-88.4185,1.64,4.6,1111122 
NERRS,ioos:station:NOAA.NERRS:gndpcwq:1,2014-05-09T16:00:00Z,30.3486,-88.4185,1.66,4.6,1111122 
NERRS,ioos:station:NOAA.NERRS:gndpcwq:1,2014-05-09T17:00:00Z,30.3486,-88.4185,1.62,4.7,1111122 
NERRS,ioos:station:NOAA.NERRS:gndpcwq:1,2014-05-09T18:00:00Z,30.3486,-88.4185,1.59,4.7,1111122 
NERRS,ioos:station:NOAA.NERRS:gndpcwq:1,2014-05-09T19:00:00Z,30.3486,-88.4185,1.57,4.7,1111122 
NERRS,ioos:station:NOAA.NERRS:gndpcwq:1,2014-05-09T19:45:00Z,30.3486,-88.4185,1.54,4.8,1111122 
NERRS,ioos:station:NOAA.NERRS:gndpcwq:1,2014-05-09T21:00:00Z,30.3486,-88.4185,1.5,4.8,1111122 
NERRS,ioos:station:NOAA.NERRS:gndpcwq:1,2014-05-09T22:00:00Z,30.3486,-88.4185,1.49,4.7,1111122 
NERRS,ioos:station:NOAA.NERRS:gndpcwq:1,2014-05-09T23:00:00Z,30.3486,-88.4185,1.48,4.7,1111122 
NERRS,ioos:station:NOAA.NERRS:gndpcwq:1,2014-05-10T00:00:00Z,30.3486,-88.4185,1.48,4.8,1111122 
NERRS,ioos:station:NOAA.NERRS:gndpcwq:1,2014-05-10T01:00:00Z,30.3486,-88.4185,1.52,4.8,1111122 
NERRS,ioos:station:NOAA.NERRS:gndpcwq:1,2014-05-10T02:00:00Z,30.3486,-88.4185,1.55,4.9,1111122 
NERRS,ioos:station:NOAA.NERRS:gndpcwq:1,2014-05-10T03:00:00Z,30.3486,-88.4185,1.57,4.9,1111122 
NERRS,ioos:station:NOAA.NERRS:gndpcwq:1,2014-05-10T04:00:00Z,30.3486,-88.4185,1.6,4.8,1111122 
NERRS,ioos:station:NOAA.NERRS:gndpcwq:1,2014-05-10T05:00:00Z,30.3486,-88.4185,1.63,4.8,1111122 
NERRS,ioos:station:NOAA.NERRS:gndpcwq:1,2014-05-10T06:00:00Z,30.3486,-88.4185,1.62,4.8,1111122 
NERRS,ioos:station:NOAA.NERRS:gndpcwq:1,2014-05-10T07:00:00Z,30.3486,-88.4185,1.52,4.8,1111122 
NERRS,ioos:station:NOAA.NERRS:gndpcwq:1,2014-05-10T08:00:00Z,30.3486,-88.4185,1.49,4.7,1111122 
NERRS,ioos:station:NOAA.NERRS:gndpcwq:1,2014-05-10T09:00:00Z,30.3486,-88.4185,1.45,4.7,1111122 
NERRS,ioos:station:NOAA.NERRS:gndpcwq:1,2014-05-10T10:00:00Z,30.3486,-88.4185,1.49,4.6,1111122 
NERRS,ioos:station:NOAA.NERRS:gndpcwq:1,2014-05-10T11:00:00Z,30.3486,-88.4185,1.57,4.6,1111122 
NERRS,ioos:station:NOAA.NERRS:gndpcwq:1,2014-05-10T12:00:00Z,30.3486,-88.4185,1.69,4.6,1111122 
NERRS,ioos:station:NOAA.NERRS:gndpcwq:1,2014-05-10T13:00:00Z,30.3486,-88.4185,1.71,4.6,1111122 
NERRS,ioos:station:NOAA.NERRS:gndpcwq:1,2014-05-10T14:00:00Z,30.3486,-88.4185,1.71,4.7,1111122 
NERRS,ioos:station:NOAA.NERRS:gndpcwq:1,2014-05-10T15:00:00Z,30.3486,-88.4185,1.67,4.8,1111122 
NERRS,ioos:station:NOAA.NERRS:gndpcwq:1,2014-05-10T16:00:00Z,30.3486,-88.4185,1.71,4.7,1111122 
NERRS,ioos:station:NOAA.NERRS:gndpcwq:1,2014-05-10T17:00:00Z,30.3486,-88.4185,1.68,4.7,1111122 
NERRS,ioos:station:NOAA.NERRS:gndpcwq:1,2014-05-10T18:00:00Z,30.3486,-88.4185,1.63,4.6,1111122 
NERRS,ioos:station:NOAA.NERRS:gndpcwq:1,2014-05-10T19:00:00Z,30.3486,-88.4185,1.6,4.6,1111122 
NERRS,ioos:station:NOAA.NERRS:gndpcwq:1,2014-05-10T20:00:00Z,30.3486,-88.4185,1.55,4.6,1111122 
NERRS,ioos:station:NOAA.NERRS:gndpcwq:1,2014-05-10T21:00:00Z,30.3486,-88.4185,1.51,4.6,1111122 
NERRS,ioos:station:NOAA.NERRS:gndpcwq:1,2014-05-10T22:00:00Z,30.3486,-88.4185,1.46,4.6,1111122 
NERRS,ioos:station:NOAA.NERRS:gndpcwq:1,2014-05-10T23:00:00Z,30.3486,-88.4185,1.44,4.8,1111122 
NERRS,ioos:station:NOAA.NERRS:gndpcwq:1,2014-05-11T00:00:00Z,30.3486,-88.4185,1.46,4.9,1111122 
NERRS,ioos:station:NOAA.NERRS:gndpcwq:1,2014-05-11T01:00:00Z,30.3486,-88.4185,1.49,5.0,1111122 
NERRS,ioos:station:NOAA.NERRS:gndpcwq:1,2014-05-11T02:00:00Z,30.3486,-88.4185,1.52,4.9,1111122 
NERRS,ioos:station:NOAA.NERRS:gndpcwq:1,2014-05-11T03:00:00Z,30.3486,-88.4185,1.53,4.7,1111122 
NERRS,ioos:station:NOAA.NERRS:gndpcwq:1,2014-05-11T04:00:00Z,30.3486,-88.4185,1.53,4.7,1111122 
NERRS,ioos:station:NOAA.NERRS:gndpcwq:1,2014-05-11T05:00:00Z,30.3486,-88.4185,1.54,4.6,1111122 
NERRS,ioos:station:NOAA.NERRS:gndpcwq:1,2014-05-11T06:00:00Z,30.3486,-88.4185,1.54,4.6,1111122 
NERRS,ioos:station:NOAA.NERRS:gndpcwq:1,2014-05-11T07:00:00Z,30.3486,-88.4185,1.55,4.5,1111122 
NERRS,ioos:station:NOAA.NERRS:gndpcwq:1,2014-05-11T08:00:00Z,30.3486,-88.4185,1.54,4.5,1111122 
NERRS,ioos:station:NOAA.NERRS:gndpcwq:1,2014-05-11T09:00:00Z,30.3486,-88.4185,1.56,4.5,1111122 
NERRS,ioos:station:NOAA.NERRS:gndpcwq:1,2014-05-11T10:00:00Z,30.3486,-88.4185,1.6,4.5,1111122 
NERRS,ioos:station:NOAA.NERRS:gndpcwq:1,2014-05-11T11:00:00Z,30.3486,-88.4185,1.64,4.4,1111122 